Weather History for KCKI - April, 2014

Change the Weather History Date:

Saturday, April 19, 2014

  Actual Average (KFLO) Record (KFLO)
Temperature  
Mean Temperature 54 °F 64 °F  
Max Temperature 57 °F 77 °F 92 °F (1995)
Min Temperature 51 °F 52 °F 32 °F (1983)
Degree Days  
Heating Degree Days 11 3  
Month to date heating degree days 95  
Since 1 July heating degree days 2471  
Cooling Degree Days 0 2  
Month to date cooling degree days 35  
Year to date cooling degree days 59  
Growing Degree Days 4 (Base 50)    
Moisture  
Dew Point 54 °F    
Average Humidity 94    
Maximum Humidity 100    
Minimum Humidity 88    
Precipitation  
Precipitation 0.40 in 0.08 in 1.14 in (2014)
Month to date precipitation 1.63  
Year to date precipitation 11.11  
Sea Level Pressure  
Sea Level Pressure 30.03 in    
Wind  
Wind Speed 8 mph (NNE)    
Max Wind Speed 13 mph    
Max Gust Speed 21 mph    
Visibility 7 miles    
Events Rain    
T = Trace of Precipitation, MM = Missing Value Source: NWS Daily Summary

Daily Weather History Graph

Daily Weather History Graph

Search for Another Location

Airport or City:

Trip Planner

Search our weather history database for the weather conditions in past years. The results will help you decide how hot, cold, wet, or windy it might be!

Date:

Astronomy

Apr. 19, 2014 Rise Set
Actual Time 6:44 AM EDT 7:53 PM EDT
Civil Twilight 6:18 AM EDT 8:19 PM EDT
Nautical Twilight 5:47 AM EDT 8:50 PM EDT
Astronomical Twilight 5:15 AM EDT 9:22 PM EDT
Moon No Moon Rise 10:07 AM EDT (4/19)
Length of Visible Light 14h 01m
Length of Day
13h 09m
Waning Gibbous, 79% of the Moon is Illuminated
Apr 19
Waning Gibbous
Apr 22
Last Quarter
Apr 29
New
May 6
First Quarter
May 14
Full

Hourly Weather History & Observations

Time (EDT) Temp. Dew Point Humidity Pressure Visibility Wind Dir Wind Speed Gust Speed Precip Events Conditions
12:15 AM 55.4 °F 55.4 °F 100% 30.06 in 7.0 mi ENE 12.7 mph 18.4 mph 0.02 in Rain Rain
12:35 AM 55.4 °F 55.4 °F 100% 30.05 in 7.0 mi NE 11.5 mph 19.6 mph 0.06 in Rain Rain
12:55 AM 55.4 °F 55.4 °F 100% 30.03 in 10.0 mi NE 10.4 mph 20.7 mph 0.08 in Rain Rain
1:15 AM 55.4 °F 53.6 °F 94% 30.03 in 10.0 mi NE 9.2 mph - 0.03 in Rain Rain
1:35 AM 55.4 °F 53.6 °F 94% 30.03 in 7.0 mi NE 9.2 mph 17.3 mph 0.07 in Rain Rain
1:55 AM 55.4 °F 55.4 °F 100% 30.00 in 7.0 mi ENE 12.7 mph 19.6 mph 0.09 in Rain Rain
2:15 AM 55.4 °F 53.6 °F 94% 29.99 in 7.0 mi ENE 10.4 mph 19.6 mph 0.01 in   Drizzle
2:35 AM 55.4 °F 55.4 °F 100% 29.98 in 10.0 mi ENE 11.5 mph 17.3 mph 0.01 in   Light Drizzle
2:55 AM 55.4 °F 55.4 °F 100% 29.99 in 10.0 mi NE 4.6 mph - 0.01 in Rain Rain
3:15 AM 55.4 °F 55.4 °F 100% 29.99 in 7.0 mi ENE 6.9 mph - 0.04 in Rain Rain
3:35 AM 55.4 °F 55.4 °F 100% 29.98 in 7.0 mi NE 4.6 mph - 0.10 in Rain Heavy Rain
3:55 AM 55.4 °F 55.4 °F 100% 29.98 in 10.0 mi NNE 6.9 mph - 0.13 in Rain Rain
4:15 AM 55.4 °F 55.4 °F 100% 29.97 in 10.0 mi NE 4.6 mph - 0.02 in Rain Rain
4:35 AM 55.4 °F 55.4 °F 100% 29.97 in 10.0 mi NE 8.1 mph - 0.03 in Rain Rain
5:15 AM 55.4 °F 55.4 °F 100% 29.97 in 10.0 mi NNE 4.6 mph - N/A   Light Drizzle
5:35 AM 55.4 °F 55.4 °F 100% 29.97 in 10.0 mi North 4.6 mph - N/A   Overcast
5:55 AM 57.2 °F 55.4 °F 94% 29.98 in 10.0 mi NNE 4.6 mph - N/A   Overcast
6:15 AM 57.2 °F 55.4 °F 94% 29.98 in 10.0 mi Calm Calm - N/A Rain Rain
6:35 AM 57.2 °F 55.4 °F 94% 29.99 in 5.0 mi Calm Calm - 0.01 in   Heavy Drizzle
6:55 AM 57.2 °F 55.4 °F 94% 29.99 in 4.0 mi North 3.5 mph - 0.03 in   Heavy Drizzle
7:15 AM 57.2 °F 55.4 °F 94% 30.00 in 10.0 mi NNE 4.6 mph - N/A   Drizzle
7:35 AM 57.2 °F 55.4 °F 94% 30.00 in 10.0 mi North 4.6 mph - N/A   Drizzle
8:15 AM 57.2 °F 55.4 °F 94% 30.01 in 5.0 mi North 4.6 mph - 0.01 in   Drizzle
8:35 AM 57.2 °F 55.4 °F 94% 30.01 in 7.0 mi North 4.6 mph - 0.01 in   Light Drizzle
8:55 AM 57.2 °F 55.4 °F 94% 30.01 in 3.0 mi North 6.9 mph - 0.02 in   Drizzle
9:15 AM 57.2 °F 55.4 °F 94% 30.02 in 1.8 mi North 5.8 mph - 0.01 in   Drizzle
9:35 AM 55.4 °F 55.4 °F 100% 30.01 in 1.5 mi North 3.5 mph - 0.01 in   Drizzle
9:55 AM 55.4 °F 53.6 °F 94% 30.02 in 1.8 mi North 8.1 mph - 0.01 in   Overcast
10:15 AM 55.4 °F 53.6 °F 94% 30.03 in 2.5 mi North 8.1 mph - N/A   Overcast
10:35 AM 55.4 °F 53.6 °F 94% 30.04 in 5.0 mi North 8.1 mph - N/A   Overcast
10:55 AM 55.4 °F 53.6 °F 94% 30.04 in 10.0 mi NNE 8.1 mph - N/A   Overcast
11:15 AM 55.4 °F 53.6 °F 94% 30.04 in 10.0 mi NNE 6.9 mph - N/A   Overcast
11:35 AM 55.4 °F 53.6 °F 94% 30.03 in 10.0 mi NNE 8.1 mph - N/A   Overcast
11:55 AM 55.4 °F 53.6 °F 94% 30.04 in 10.0 mi North 6.9 mph - N/A   Overcast
12:15 PM 57.2 °F 53.6 °F 88% 30.03 in 10.0 mi North 10.4 mph - N/A   Overcast
12:35 PM 57.2 °F 53.6 °F 88% 30.04 in 10.0 mi North 10.4 mph 18.4 mph N/A   Overcast
12:55 PM 57.2 °F 53.6 °F 88% 30.03 in 10.0 mi North 10.4 mph 18.4 mph N/A   Overcast
1:15 PM 57.2 °F 53.6 °F 88% 30.03 in 10.0 mi North 8.1 mph 17.3 mph N/A   Overcast
1:35 PM 57.2 °F 53.6 °F 88% 30.03 in 10.0 mi NNE 11.5 mph 20.7 mph N/A   Overcast
1:55 PM 57.2 °F 53.6 °F 88% 30.03 in 10.0 mi North 9.2 mph - N/A   Overcast
2:15 PM 57.2 °F 53.6 °F 88% 30.02 in 10.0 mi North 9.2 mph - N/A   Overcast
2:35 PM 57.2 °F 53.6 °F 88% 30.02 in 10.0 mi NNE 9.2 mph 19.6 mph N/A   Overcast
2:55 PM 57.2 °F 53.6 °F 88% 30.02 in 10.0 mi North 8.1 mph 16.1 mph N/A   Overcast
3:15 PM 57.2 °F 53.6 °F 88% 30.03 in 10.0 mi NNE 6.9 mph - N/A   Overcast
3:35 PM 57.2 °F 53.6 °F 88% 30.03 in 10.0 mi North 10.4 mph 18.4 mph N/A   Overcast
3:55 PM 57.2 °F 53.6 °F 88% 30.03 in 10.0 mi North 5.8 mph 18.4 mph N/A   Overcast
4:15 PM 57.2 °F 53.6 °F 88% 30.04 in 10.0 mi NNE 8.1 mph - N/A   Overcast
4:35 PM 57.2 °F 53.6 °F 88% 30.04 in 4.0 mi NNE 5.8 mph - N/A   Overcast
4:55 PM 57.2 °F 53.6 °F 88% 30.03 in 5.0 mi NE 4.6 mph - N/A   Overcast
5:15 PM 55.4 °F 53.6 °F 94% 30.04 in 4.0 mi NNE 8.1 mph - N/A   Overcast
5:35 PM 55.4 °F 53.6 °F 94% 30.04 in 5.0 mi NNE 8.1 mph - N/A   Overcast
5:55 PM 55.4 °F 53.6 °F 94% 30.04 in 5.0 mi North 6.9 mph - N/A   Overcast
6:15 PM 55.4 °F 53.6 °F 94% 30.05 in 10.0 mi NNE 6.9 mph 17.3 mph N/A   Overcast
6:35 PM 57.2 °F 53.6 °F 88% 30.06 in 10.0 mi North 5.8 mph 18.4 mph N/A   Overcast
7:15 PM 55.4 °F 53.6 °F 94% 30.06 in 10.0 mi North 8.1 mph - N/A   Overcast
7:35 PM 55.4 °F 51.8 °F 88% 30.06 in 10.0 mi North 10.4 mph 17.3 mph N/A   Overcast
7:55 PM 55.4 °F 51.8 °F 88% 30.06 in 3.0 mi North 11.5 mph 19.6 mph N/A   Overcast
8:15 PM 53.6 °F 51.8 °F 94% 30.07 in 3.0 mi North 11.5 mph 16.1 mph N/A   Overcast
8:35 PM 53.6 °F 51.8 °F 94% 30.08 in 4.0 mi North 6.9 mph - N/A   Overcast
8:55 PM 53.6 °F 51.8 °F 94% 30.08 in 4.0 mi North 8.1 mph - N/A   Overcast
9:15 PM 53.6 °F 51.8 °F 94% 30.08 in 5.0 mi North 10.4 mph 16.1 mph N/A   Overcast
9:35 PM 53.6 °F 51.8 °F 94% 30.09 in 5.0 mi North 4.6 mph - N/A   Overcast
9:55 PM 53.6 °F 51.8 °F 94% 30.10 in 5.0 mi North 10.4 mph 17.3 mph N/A   Overcast
10:15 PM 51.8 °F 50.0 °F 94% 30.09 in 5.0 mi North 10.4 mph 20.7 mph N/A   Overcast
10:35 PM 51.8 °F 50.0 °F 94% 30.11 in 5.0 mi North 8.1 mph 19.6 mph N/A   Overcast
10:55 PM 51.8 °F 50.0 °F 94% 30.11 in 7.0 mi North 8.1 mph - N/A   Overcast
11:15 PM 51.8 °F 51.8 °F 100% 30.10 in 5.0 mi North 5.8 mph - N/A   Overcast
11:35 PM 53.6 °F 51.8 °F 94% 30.10 in 3.0 mi North 9.2 mph - N/A   Drizzle
11:55 PM 53.6 °F 51.8 °F 94% 30.09 in 3.0 mi North 10.4 mph - N/A   Drizzle